Location: Shenandoah County Park
(38.9356°N, 78.4524°W)
Time: 07:32:08
(UTC-04:00)

Vanguard 1 - Pass Details

Date: 03 February 2023
Orbit: 648 x 3832 km, 34.3° (Epoch: 01 April)

Event Time Altitude Azimuth Distance (km) Brightness Sun altitude
Exits shadow 03:56:51 30° 144° (SE) 2,023 11.7 -39.4°
Maximum altitude 03:56:54 30° 143° (SE) 2,026 11.7 -39.4°
Drops below altitude 10° 04:05:08 10° 88° (E) 4,141 14.0 -37.8°
Sets 04:10:04 0° 80° (E) 5,721 15.0 -36.9°
